Regional Weather Roundup
Issued by NWS Charleston, WV

Home | Current Version | Previous Version | Graphics & Text | Print | Product List | Glossary On
Versions: 1 2 3 4 5 6 7 8 9 10 11 12 13 14 15 16 17 18 19 20 21 22 23 24 25 26 27 28 29 30 31 32 33 34 35 36 37 38 39 40 41 42 43 44 45 46 47 48 49 50
000
ASUS41 KRLX 220210
RWRRLX
West Virginia Regional Weather Roundup
National Weather Service Charleston WV
900 PM EST SUN DEC 21 2014

Note: "fair" indicates few or no clouds below 12,000 feet with no
significant weather and/or obstructions to visibility.

WVZ003-220300-
Northern Panhandle of West Virginia

CITY           SKY/WX    TMP DP  RH WIND       PRES   REMARKS
WHEELING       PTCLDY    29  21  72 E9        30.19F
$$

WVZ009-220300-
Northwest West Virginia

CITY           SKY/WX    TMP DP  RH WIND       PRES   REMARKS
PARKERSBURG    CLEAR     29  23  78 CALM      30.21F
$$

WVZ006-220300-
Western West Virginia

CITY           SKY/WX    TMP DP  RH WIND       PRES   REMARKS
HUNTINGTON     PTCLDY    35  26  69 NE5       30.15F
$$

WVZ015-220300-
West Central West Virginia

CITY           SKY/WX    TMP DP  RH WIND       PRES   REMARKS
CHARLESTON     PTCLDY    32  26  78 CALM      30.16S
$$

WVZ022-031-220300-
North Central West Virginia

CITY           SKY/WX    TMP DP  RH WIND       PRES   REMARKS
CLARKSBURG     CLEAR     30  23  75 NE5       30.18F
MORGANTOWN     PTCLDY    30  20  66 N5        30.20S
$$

WVZ025-035-042-045-220300-
Southern West Virginia

CITY           SKY/WX    TMP DP  RH WIND       PRES   REMARKS
BECKLEY        CLEAR     37  29  72 SE9       30.12S
LOGAN            N/A     36  27  69 NE6       30.12S
BLUEFIELD      MOCLDY    38  31  76 S6G17     30.13R
LEWISBURG      CLEAR     37  29  75 CALM      30.17S
$$

WVZ047-220300-
Northern Mountains of West Virginia

CITY           SKY/WX    TMP DP  RH WIND       PRES   REMARKS
ELKINS         PTCLDY    25  24  96 CALM      30.16S
$$

WVZ052-220300-
Eastern Panhandle of West Virginia

CITY           SKY/WX    TMP DP  RH WIND       PRES   REMARKS
MARTINSBURG    CLEAR     29  20  69 N3        30.30S
PETERSBURG     PTCLDY    28  25  89 CALM      30.26S
$$


USA.gov is the U.S. government's official web portal to all federal, state and local government web resources and services.